Regional Weather Roundup
Issued by NWS

Home | Current Version | Previous Version | Text Only | Print | Product List | Glossary Off
Versions: 1 2 3 4 5 6 7 8 9 10 11 12 13 14 15 16 17 18 19 20 21 22 23 24 25 26 27 28 29 30 31 32 33 34 35 36 37 38 39 40 41 42 43 44 45 46 47 48 49 50

000
ASUS43 KMKX 290711
RWRWI

WISCONSIN REGIONAL WEATHER ROUNDUP
NATIONAL WEATHER SERVICE MILWAUKEE/SULLIVAN WI
100 AM CST MON DEC 29 2014

NOTE: "FAIR" INDICATES FEW OR NO CLOUDS BELOW 12,000 FEET WITH NO
SIGNIFICANT WEATHER AND/OR OBSTRUCTIONS TO VISIBILITY.

WIZ001-002-006>008-014>016-023>028-290800-
NORTHWEST WISCONSIN

CITY           SKY/WX    TMP DP  RH WIND       PRES   REMARKS
SUPERIOR ARPT  CLEAR      3  -4  72 NW8       30.43R WCI -10
ASHLAND        CLEAR     -3  -7  82 W5        30.37R WCI -13
HAYWARD        PTCLDY   -10 -16  74 S3        30.35R
SIREN          PTCLDY    -5  -8  86 CALM      30.40R
CUMBERLAND     PTCLDY     1  -6  71 N8        30.35R WCI -12
RICE LAKE      PTCLDY     0  -5  77 NW3       30.37R
CHETEK         PTCLDY    -2  -5  86 CALM      30.36S
LADYSMITH      MOCLDY    -7 -12  81 NW3       30.34S
EAU CLAIRE     PTCLDY     3  -1  83 CALM      30.35S
MENOMONIE      PTCLDY     8   4  86 NW6       30.37R WCI  -2
NEW RICHMOND   PTCLDY     0  -6  77 N5        30.38R WCI -10
OSCEOLA        PTCLDY     1  -3  84 CALM      30.42R
$$

WIZ003>005-009-010-017-018-290800-
NORTH CENTRAL WISCONSIN

CITY           SKY/WX    TMP DP  RH WIND       PRES   REMARKS
MANITOWISH WTR PTCLDY   -16 -21  78 CALM      30.25R
ARBOR VITAE    PTCLDY    -9 -14  78 CALM      30.25S
WOODRUFF       PTCLDY    -9 -14  78 CALM      30.25S
RHINELANDER    PTCLDY    -3  -6  87 W6        30.26R WCI -15
EAGLE RIVER    FLURRIES  -7 -12  77 CALM      30.23S
LAND O LAKES   LGT SNOW   4   1  86 CALM      30.23S
PHILLIPS       PTCLDY   -14 -18  81 CALM      30.28R
TOMAHAWK       PTCLDY   -11 -15  81 CALM      30.28S
MEDFORD        PTCLDY   N/A N/A N/A N3        30.28S
MERRILL        PTCLDY    -7 -10  85 CALM      30.29R
$$

WIZ029-030-035-036-043>047-290800-
CENTRAL WISCONSIN

CITY           SKY/WX    TMP DP  RH WIND       PRES   REMARKS
WAUSAU         PTCLDY     3   0  87 NW5       30.29R WCI  -6
MOSINEE        PTCLDY     3   3 100 NW5       30.30S WCI  -6
MARSHFIELD     PTCLDY     8   2  76 N5        30.30R WCI   0
STEVENS POINT  PTCLDY     7   4  86 CALM      30.31S
WAUPACA        PTCLDY    16  10  77 N5        30.33R WCI   9
WAUTOMA        MOCLDY    16  11  80 N8        30.31F WCI   5
WISC RAPIDS    PTCLDY    13   7  77 N7        30.32S WCI   3
CAMP DOUGLAS   MOCLDY    15  15  99 N6        30.31S WCI   6
$$

WIZ011>013-019>022-031-037>040-048>050-290800-
NORTHEAST WISCONSIN

CITY           SKY/WX    TMP DP  RH WIND       PRES   REMARKS
ANTIGO         PTCLDY    -6  -8  88 NW3       30.26R
SHAWANO        CLEAR     13   8  81 CALM      30.33R
OCONTO         CLEAR     12   6  77 W3        30.33R
STURGEON BAY   CLEAR     16   5  62 N8        30.31R WCI   5
GREEN BAY      CLEAR     16   8  71 N6        30.33R WCI   7
MANITOWOC      CLEAR     18  12  77 N9        30.31R WCI   7
APPLETON       CLEAR     16   9  73 N7        30.31R WCI   6
CLINTONVILLE   CLEAR     14   7  73 NW3       30.32S
OSHKOSH        PTCLDY    19  12  74 N9        30.30R WCI   8
$$

WIZ032>034-041-042-053>061-290800-
SOUTHWEST WISCONSIN

CITY           SKY/WX    TMP DP  RH WIND       PRES   REMARKS
LA CROSSE      MOCLDY    17  12  80 NW6       30.33F WCI   9
SPARTA         MOCLDY    15  13  90 N7        30.32F WCI   6
VIROQUA        MOCLDY    19  15  88 NE6       30.27R WCI  10
BOSCOBEL       CLOUDY    23  13  65 N6        30.31R WCI  16
PRAIRIE DU CHI CLOUDY    24  18  75 N3        30.31R
PLATTEVILLE    CLOUDY    25  22  87 CALM      30.26R
$$

WIZ056-057-062-063-064-067-068-290800-
SOUTH CENTRAL WISCONSIN

CITY           SKY/WX    TMP DP  RH WIND       PRES   REMARKS
REEDSBURG      MOCLDY    19  13  80 N3        30.29S
BARABOO/DELLS  MOCLDY    19  13  79 N6        30.28S WCI  10
LONE ROCK      CLOUDY    25  13  60 VRB3      30.31R
MINERAL POINT  CLOUDY    27  21  80 N5        30.26R WCI  21
MADISON        MOCLDY    22  14  71 N13       30.28R WCI  10
MIDDLETON      MOCLDY    24  16  70 NE10      30.29R WCI  14
WATERTOWN      MOCLDY    22  18  85 N6        30.27R WCI  15
MONROE         CLOUDY    25  23  93 N6        30.25R WCI  18
JANESVILLE     MOCLDY    28  21  74 N5        30.26R WCI  23
$$

WIZ051-052-058>065-066-070>072-290800-
SOUTHEAST WISCONSIN

CITY           SKY/WX    TMP DP  RH WIND       PRES   REMARKS
MILWAUKEE      MOCLDY    28  19  69 N6        30.26R WCI  22
WAUKESHA       CLOUDY    23  19  86 N3        30.27R
MILWAUKEE/TIMM MOCLDY    27  19  74 N9        30.27R WCI  17
RACINE         CLOUDY    24  18  77 N6        30.27S WCI  17
BURLINGTON     CLOUDY    21  20  94 CALM      30.26R
KENOSHA        CLOUDY    27  19  72 N5        30.26R WCI  22
FOND DU LAC    PTCLDY    20  14  77 N9        30.29S WCI   9
SHEBOYGAN      PTCLDY    20  11  68 N7        30.28S WCI  11
WEST BEND      PTCLDY    23  14  68 N7        30.27R WCI  15
JUNEAU         MOCLDY    20  16  85 N8        30.28S WCI  10
$$

LSZ147-162-290800-
LAKE SUPERIOR

STATION/POSITION TIME  TEMP    WIND        PRES    WAVE
                       AIR SEA DIR/SP/G            HT/PER
                 (UTC) (F)     (DEG/KT/KT) (MB)    (FT/S)
DEVILS ISLAND    0700    8     330/ 13/ 18 1030.1R
PORT WING        0600   10     320/ 10/ 12 1028.8R
SAXON HARBOR     0600    5     200/  5/  7 1027.8R
$$

LMZ867-665-643>646-290800-
LAKE MICHIGAN

STATION/POSITION TIME  TEMP    WIND        PRES    WAVE
                       AIR SEA DIR/SP/G            HT/PER
                 (UTC) (F)     (DEG/KT/KT) (MB)    (FT/S)
CHAMBERS ISLAND  0600   16     300/  9/ 14 1026.1R
NORTHPORT PIER   0610   19     330/ 14/ 22 1025.4S
SISTER BAY       0613          350/ 19/ 21   N/A
ALGOMA LAKESHORE 0600          340/  8/ 13   N/A
KEWAUNEE LAKESHO 0600   17     350/  9/ 11 1025.0R
SHEBOYGAN LAKESH 0700   22 36  330/ 11/ 14 1027.0R
PORT WASHINGTON  0600   26     360/  5/ 10 1026.1R
MILWAUKEE LAKESH 0600   28     340/  9/ 11   N/A
KENOSHA   LAKESH 0700   29     340/  4/  6 1024.7R
$$

TC  - TEMPERATURE IN CELSIUS
VSB - VISIBILITY IN STATUTE MILES
WCI - WIND CHILL INDEX
HX  - HEAT INDEX




USA.gov is the U.S. government's official web portal to all federal, state and local government web resources and services.